| time (UTC) | temp F | wind direction | speed MPH | gust MPH | rain 1hr in | rain 24hr in | rain mn in | humidity % | barometer mb |
| 20260508193516 | 49 | 315 | 4.0 | 9.0 | 0.00 | 0.00 | 0.00 | 45 | 1009.6 |
| 20260508193036 | 48 | 0.0 | 2.0 | 0.00 | 0.00 | 0.00 | 48 | 1009.7 | |
| 20260508192516 | 48 | 315 | 3.0 | 8.0 | 0.00 | 0.00 | 0.00 | 50 | 1009.7 |
| 20260508192037 | 48 | 315 | 3.0 | 7.0 | 0.00 | 0.00 | 0.00 | 48 | 1009.7 |
| 20260508191516 | 47 | 315 | 2.0 | 7.0 | 0.00 | 0.00 | 0.00 | 49 | 1009.6 |
| 20260508191036 | 47 | 315 | 5.0 | 10.0 | 0.00 | 0.00 | 0.00 | 47 | 1009.7 |
| 20260508190516 | 48 | 315 | 4.0 | 11.0 | 0.00 | 0.00 | 0.00 | 46 | 1009.7 |
| 20260508190016 | 48 | 293 | 4.0 | 8.0 | 0.00 | 0.00 | 0.00 | 45 | 1009.7 |
| 20260508185516 | 49 | 315 | 5.0 | 12.0 | 0.00 | 0.00 | 0.00 | 45 | 1009.7 |
| 20260508185016 | 50 | 203 | 3.0 | 9.0 | 0.00 | 0.00 | 0.00 | 44 | 1009.7 |
| 20260508184516 | 51 | 180 | 3.0 | 11.0 | 0.00 | 0.00 | 0.00 | 49 | 1009.6 |
| 20260508184117 | 50 | 293 | 2.0 | 7.0 | 0.00 | 0.00 | 0.00 | 46 | 1009.7 |
| 20260508183516 | 49 | 203 | 2.0 | 6.0 | 0.00 | 0.00 | 0.00 | 48 | 1009.8 |
| 20260508183016 | 48 | 293 | 3.0 | 14.0 | 0.00 | 0.00 | 0.00 | 47 | 1009.9 |
| 20260508182516 | 48 | 315 | 3.0 | 10.0 | 0.00 | 0.00 | 0.00 | 48 | 1010.0 |
| 20260508182016 | 48 | 293 | 3.0 | 10.0 | 0.00 | 0.00 | 0.00 | 46 | 1009.9 |
| 20260508181517 | 48 | 315 | 2.0 | 6.0 | 0.00 | 0.00 | 0.00 | 47 | 1010.0 |
| 20260508181036 | 48 | 225 | 3.0 | 10.0 | 0.00 | 0.00 | 0.00 | 50 | 1009.9 |
| 20260508180516 | 48 | 315 | 4.0 | 9.0 | 0.00 | 0.00 | 0.00 | 45 | 1009.9 |
| 20260508180037 | 48 | 270 | 3.0 | 9.0 | 0.00 | 0.00 | 0.00 | 46 | 1009.9 |
| 20260508175516 | 48 | 158 | 3.0 | 11.0 | 0.00 | 0.00 | 0.00 | 47 | 1009.9 |
| 20260508175016 | 48 | 180 | 2.0 | 7.0 | 0.00 | 0.00 | 0.00 | 45 | 1009.9 |
| 20260508174537 | 48 | 158 | 3.0 | 8.0 | 0.00 | 0.00 | 0.00 | 44 | 1009.8 |
| 20260508174016 | 48 | 315 | 2.0 | 5.0 | 0.00 | 0.00 | 0.00 | 47 | 1009.8 |
| 20260508173516 | 47 | 315 | 5.0 | 11.0 | 0.00 | 0.00 | 0.00 | 49 | 1009.9 |
| 20260508173016 | 48 | 293 | 3.0 | 11.0 | 0.00 | 0.00 | 0.00 | 46 | 1009.9 |
| 20260508172516 | 47 | 315 | 4.0 | 11.0 | 0.00 | 0.00 | 0.00 | 48 | 1009.9 |
| 20260508172016 | 47 | 315 | 4.0 | 12.0 | 0.00 | 0.00 | 0.00 | 45 | 1009.9 |
| 20260508171517 | 47 | 315 | 3.0 | 14.0 | 0.00 | 0.00 | 0.00 | 46 | 1009.8 |
| 20260508171016 | 47 | 315 | 4.0 | 10.0 | 0.00 | 0.00 | 0.00 | 47 | 1009.9 |
| 20260508170517 | 47 | 315 | 3.0 | 8.0 | 0.00 | 0.00 | 0.00 | 47 | 1009.8 |
| 20260508170036 | 46 | 315 | 4.0 | 14.0 | 0.00 | 0.00 | 0.00 | 46 | 1009.8 |
| 20260508165557 | 46 | 315 | 3.0 | 9.0 | 0.00 | 0.00 | 0.00 | 48 | 1009.9 |
| 20260508165037 | 46 | 315 | 5.0 | 12.0 | 0.00 | 0.00 | 0.00 | 46 | 1010.0 |
| 20260508164516 | 46 | 315 | 5.0 | 12.0 | 0.00 | 0.00 | 0.00 | 47 | 1010.0 |
| 20260508164016 | 46 | 315 | 4.0 | 11.0 | 0.00 | 0.00 | 0.00 | 48 | 1010.0 |
| 20260508163516 | 46 | 315 | 6.0 | 14.0 | 0.00 | 0.00 | 0.00 | 47 | 1010.1 |
| 20260508163037 | 47 | 315 | 5.0 | 13.0 | 0.00 | 0.00 | 0.00 | 47 | 1010.1 |
| 20260508162516 | 46 | 68 | 1.0 | 4.0 | 0.00 | 0.00 | 0.00 | 53 | 1010.1 |
| 20260508162036 | 46 | 338 | 1.0 | 4.0 | 0.00 | 0.00 | 0.00 | 50 | 1010.1 |
| 20260508161516 | 45 | 293 | 4.0 | 10.0 | 0.00 | 0.00 | 0.00 | 49 | 1010.1 |
| 20260508161016 | 46 | 315 | 6.0 | 13.0 | 0.00 | 0.00 | 0.00 | 47 | 1010.1 |
| 20260508160516 | 46 | 338 | 2.0 | 6.0 | 0.00 | 0.00 | 0.00 | 49 | 1010.1 |
| 20260508160037 | 46 | 315 | 3.0 | 7.0 | 0.00 | 0.00 | 0.00 | 48 | 1010.1 |
| 20260508155516 | 46 | 315 | 4.0 | 11.0 | 0.00 | 0.00 | 0.00 | 48 | 1010.0 |
| 20260508155016 | 46 | 315 | 3.0 | 8.0 | 0.00 | 0.00 | 0.00 | 47 | 1010.1 |
| 20260508154516 | 46 | 315 | 3.0 | 10.0 | 0.00 | 0.00 | 0.00 | 48 | 1010.1 |
| 20260508154016 | 46 | 315 | 6.0 | 14.0 | 0.00 | 0.00 | 0.00 | 48 | 1010.0 |
| 20260508153516 | 47 | 315 | 3.0 | 12.0 | 0.00 | 0.00 | 0.00 | 50 | 1010.0 |
| 20260508153016 | 47 | 248 | 3.0 | 7.0 | 0.00 | 0.00 | 0.00 | 49 | 1010.0 |
| 20260508152516 | 46 | 315 | 3.0 | 7.0 | 0.00 | 0.00 | 0.00 | 53 | 1009.9 |
| 20260508152016 | 46 | 338 | 3.0 | 7.0 | 0.00 | 0.00 | 0.00 | 48 | 1009.9 |
| 20260508151516 | 46 | 315 | 4.0 | 13.0 | 0.00 | 0.00 | 0.00 | 48 | 1009.8 |
| 20260508151016 | 46 | 225 | 3.0 | 11.0 | 0.00 | 0.00 | 0.00 | 49 | 1009.8 |
| 20260508150516 | 46 | 203 | 3.0 | 14.0 | 0.00 | 0.00 | 0.00 | 47 | 1009.8 |
| 20260508150016 | 46 | 338 | 3.0 | 11.0 | 0.00 | 0.00 | 0.00 | 51 | 1009.7 |
| 20260508145516 | 45 | 315 | 7.0 | 16.0 | 0.00 | 0.00 | 0.00 | 51 | 1009.9 |
| 20260508145017 | 45 | 315 | 6.0 | 13.0 | 0.00 | 0.00 | 0.00 | 49 | 1009.9 |
| 20260508144517 | 44 | 315 | 2.0 | 9.0 | 0.00 | 0.00 | 0.00 | 55 | 1009.9 |
| 20260508144016 | 44 | 315 | 3.0 | 9.0 | 0.00 | 0.00 | 0.00 | 55 | 1009.9 |
| 20260508143516 | 44 | 315 | 3.0 | 8.0 | 0.00 | 0.00 | 0.00 | 51 | 1009.9 |
| 20260508143016 | 44 | 315 | 4.0 | 11.0 | 0.00 | 0.00 | 0.00 | 51 | 1009.8 |
| 20260508142516 | 45 | 315 | 10.0 | 20.0 | 0.00 | 0.00 | 0.00 | 49 | 1009.9 |
| 20260508142016 | 45 | 315 | 6.0 | 14.0 | 0.00 | 0.00 | 0.00 | 48 | 1009.9 |
| 20260508141516 | 46 | 315 | 4.0 | 11.0 | 0.00 | 0.00 | 0.00 | 49 | 1010.0 |
| 20260508141017 | 46 | 315 | 2.0 | 8.0 | 0.00 | 0.00 | 0.00 | 50 | 1009.8 |
| 20260508140516 | 45 | 338 | 2.0 | 5.0 | 0.00 | 0.00 | 0.00 | 52 | 1009.9 |
| 20260508140037 | 44 | 315 | 2.0 | 9.0 | 0.00 | 0.00 | 0.00 | 53 | 1009.9 |
| 20260508135517 | 44 | 293 | 3.0 | 12.0 | 0.00 | 0.00 | 0.00 | 53 | 1009.9 |
| 20260508135016 | 44 | 293 | 4.0 | 11.0 | 0.00 | 0.00 | 0.00 | 53 | 1010.0 |
| 20260508134516 | 44 | 315 | 4.0 | 9.0 | 0.00 | 0.00 | 0.00 | 57 | 1010.0 |
| 20260508134016 | 44 | 315 | 3.0 | 9.0 | 0.00 | 0.00 | 0.00 | 56 | 1010.0 |
| 20260508133516 | 43 | 315 | 6.0 | 12.0 | 0.00 | 0.00 | 0.00 | 56 | 1010.1 |
| 20260508133016 | 43 | 315 | 7.0 | 15.0 | 0.00 | 0.00 | 0.00 | 57 | 1010.1 |
| 20260508132516 | 43 | 315 | 3.0 | 11.0 | 0.00 | 0.00 | 0.00 | 54 | 1010.1 |
| 20260508132036 | 43 | 315 | 4.0 | 9.0 | 0.00 | 0.00 | 0.00 | 56 | 1010.2 |
| 20260508131516 | 43 | 315 | 3.0 | 9.0 | 0.00 | 0.00 | 0.00 | 57 | 1010.2 |
| 20260508131016 | 43 | 315 | 2.0 | 6.0 | 0.00 | 0.00 | 0.00 | 58 | 1010.2 |
| 20260508130536 | 42 | 293 | 3.0 | 10.0 | 0.00 | 0.00 | 0.00 | 61 | 1010.2 |
| 20260508130016 | 42 | 225 | 1.0 | 6.0 | 0.00 | 0.00 | 0.00 | 63 | 1010.2 |
| 20260508125516 | 41 | 293 | 2.0 | 9.0 | 0.00 | 0.00 | 0.00 | 64 | 1010.3 |
| 20260508125016 | 41 | 315 | 2.0 | 5.0 | 0.00 | 0.00 | 0.00 | 62 | 1010.3 |
| 20260508124516 | 40 | 315 | 2.0 | 6.0 | 0.00 | 0.00 | 0.00 | 65 | 1010.2 |
| 20260508124016 | 40 | 315 | 2.0 | 8.0 | 0.00 | 0.00 | 0.00 | 66 | 1010.3 |
| 20260508123517 | 40 | 293 | 1.0 | 3.0 | 0.00 | 0.00 | 0.00 | 65 | 1010.3 |
| 20260508123016 | 40 | 293 | 2.0 | 8.0 | 0.00 | 0.00 | 0.00 | 67 | 1010.3 |
| 20260508122557 | 40 | 315 | 3.0 | 8.0 | 0.00 | 0.00 | 0.00 | 64 | 1010.3 |
| 20260508122016 | 40 | 315 | 4.0 | 9.0 | 0.00 | 0.00 | 0.00 | 66 | 1010.3 |
| 20260508121523 | 40 | 315 | 2.0 | 6.0 | 0.00 | 0.00 | 0.00 | 65 | 1010.4 |
| 20260508121016 | 40 | 315 | 1.0 | 4.0 | 0.00 | 0.00 | 0.00 | 67 | 1010.3 |
| 20260508120516 | 41 | 315 | 1.0 | 6.0 | 0.00 | 0.00 | 0.00 | 65 | 1010.4 |
| 20260508120016 | 41 | 0.0 | 4.0 | 0.00 | 0.00 | 0.00 | 70 | 1010.3 | |
| 20260508115557 | 40 | 293 | 1.0 | 4.0 | 0.00 | 0.00 | 0.00 | 69 | 1010.3 |
| 20260508115016 | 40 | 0.0 | 3.0 | 0.00 | 0.00 | 0.00 | 73 | 1010.3 | |
| 20260508114516 | 39 | 248 | 1.0 | 7.0 | 0.00 | 0.00 | 0.00 | 75 | 1010.2 |
| 20260508114016 | 38 | 315 | 2.0 | 7.0 | 0.00 | 0.00 | 0.00 | 76 | 1010.3 |
| 20260508113516 | 37 | 0.0 | 1.0 | 0.00 | 0.00 | 0.00 | 84 | 1010.2 | |
| 20260508113016 | 37 | 0.0 | 1.0 | 0.00 | 0.00 | 0.00 | 89 | 1010.3 | |
| 20260508112516 | 36 | 0.0 | 0.0 | 0.00 | 0.00 | 0.00 | 92 | 1010.2 | |
| 20260508112016 | 35 | 0.0 | 1.0 | 0.00 | 0.00 | 0.00 | 91 | 1010.1 | |
| 20260508111516 | 34 | 0.0 | 0.0 | 0.00 | 0.00 | 0.00 | 93 | 1010.1 | |
| 20260508111016 | 34 | 0.0 | 0.0 | 0.00 | 0.00 | 0.00 | 92 | 1010.1 | |
| 20260508110516 | 34 | 0.0 | 0.0 | 0.00 | 0.00 | 0.00 | 92 | 1010.1 | |
| 20260508110016 | 33 | 0.0 | 1.0 | 0.00 | 0.00 | 0.00 | 93 | 1010.0 | |
| 20260508105536 | 32 | 0.0 | 0.0 | 0.00 | 0.00 | 0.00 | 94 | 1010.0 | |
| 20260508105017 | 32 | 0.0 | 1.0 | 0.00 | 0.00 | 0.00 | 94 | 1010.0 | |
| 20260508104516 | 31 | 0.0 | 1.0 | 0.00 | 0.00 | 0.00 | 95 | 1009.9 | |
| 20260508104016 | 30 | 0.0 | 1.0 | 0.00 | 0.00 | 0.00 | 96 | 1009.9 | |
| 20260508103516 | 29 | 0.0 | 0.0 | 0.00 | 0.00 | 0.00 | 96 | 1009.9 | |
| 20260508103016 | 28 | 0.0 | 0.0 | 0.00 | 0.00 | 0.00 | 96 | 1009.8 | |
| 20260508102516 | 28 | 0.0 | 1.0 | 0.00 | 0.00 | 0.00 | 96 | 1009.8 | |
| 20260508102016 | 28 | 0.0 | 0.0 | 0.00 | 0.00 | 0.00 | 96 | 1009.9 | |
| 20260508101516 | 28 | 0.0 | 0.0 | 0.00 | 0.00 | 0.00 | 96 | 1009.8 | |
| 20260508101016 | 28 | 0.0 | 0.0 | 0.00 | 0.00 | 0.00 | 96 | 1009.7 | |
| 20260508100516 | 28 | 0.0 | 0.0 | 0.00 | 0.00 | 0.00 | 96 | 1009.6 | |
| 20260508100016 | 28 | 0.0 | 1.0 | 0.00 | 0.00 | 0.00 | 96 | 1009.5 | |
| 20260508095536 | 28 | 0.0 | 0.0 | 0.00 | 0.00 | 0.00 | 96 | 1009.5 | |
| 20260508095036 | 28 | 0.0 | 0.0 | 0.00 | 0.00 | 0.00 | 96 | 1009.5 | |
| 20260508094516 | 28 | 0.0 | 0.0 | 0.00 | 0.00 | 0.00 | 96 | 1009.4 | |
| 20260508094017 | 28 | 0.0 | 0.0 | 0.00 | 0.00 | 0.00 | 96 | 1009.4 | |
| 20260508093536 | 28 | 0.0 | 0.0 | 0.00 | 0.00 | 0.00 | 96 | 1009.5 | |
| 20260508093037 | 28 | 0.0 | 0.0 | 0.00 | 0.00 | 0.00 | 96 | 1009.4 | |
| 20260508092516 | 28 | 0.0 | 0.0 | 0.00 | 0.00 | 0.00 | 96 | 1009.4 | |
| 20260508092016 | 28 | 0.0 | 0.0 | 0.00 | 0.00 | 0.00 | 96 | 1009.4 | |
| 20260508091516 | 28 | 0.0 | 0.0 | 0.00 | 0.00 | 0.00 | 96 | 1009.4 | |
| 20260508091017 | 28 | 0.0 | 0.0 | 0.00 | 0.00 | 0.00 | 96 | 1009.3 | |
| 20260508090516 | 28 | 0.0 | 0.0 | 0.00 | 0.00 | 0.00 | 96 | 1009.3 | |
| 20260508090016 | 28 | 0.0 | 0.0 | 0.00 | 0.00 | 0.00 | 96 | 1009.3 | |
| 20260508085537 | 27 | 0.0 | 0.0 | 0.00 | 0.00 | 0.00 | 96 | 1009.2 | |
| 20260508085037 | 27 | 0.0 | 0.0 | 0.00 | 0.00 | 0.00 | 96 | 1009.3 | |
| 20260508084557 | 27 | 0.0 | 1.0 | 0.00 | 0.00 | 0.00 | 96 | 1009.2 | |
| 20260508084057 | 27 | 0.0 | 0.0 | 0.00 | 0.00 | 0.00 | 96 | 1009.2 | |
| 20260508083516 | 27 | 0.0 | 1.0 | 0.00 | 0.00 | 0.00 | 96 | 1009.1 | |
| 20260508083016 | 27 | 0.0 | 0.0 | 0.00 | 0.00 | 0.00 | 96 | 1009.0 | |
| 20260508082516 | 27 | 0.0 | 0.0 | 0.00 | 0.00 | 0.00 | 96 | 1009.0 | |
| 20260508082017 | 27 | 0.0 | 1.0 | 0.00 | 0.00 | 0.00 | 96 | 1009.0 | |
| 20260508081516 | 27 | 0.0 | 0.0 | 0.00 | 0.00 | 0.00 | 96 | 1009.0 | |
| 20260508081016 | 27 | 0.0 | 1.0 | 0.00 | 0.00 | 0.00 | 96 | 1009.0 | |
| 20260508080516 | 27 | 0.0 | 1.0 | 0.00 | 0.00 | 0.00 | 96 | 1009.0 | |
| 20260508080016 | 27 | 0.0 | 0.0 | 0.00 | 0.00 | 0.00 | 96 | 1009.0 | |
| 20260508075537 | 27 | 0.0 | 0.0 | 0.00 | 0.00 | 0.00 | 96 | 1008.9 | |
| 20260508075016 | 27 | 0.0 | 0.0 | 0.00 | 0.00 | 0.00 | 96 | 1008.9 | |
| 20260508074537 | 27 | 0.0 | 0.0 | 0.00 | 0.00 | 0.00 | 96 | 1009.0 | |
| 20260508074016 | 27 | 0.0 | 0.0 | 0.00 | 0.00 | 0.00 | 96 | 1008.9 | |
| 20260508073516 | 27 | 0.0 | 1.0 | 0.00 | 0.00 | 0.00 | 95 | 1008.9 | |
| 20260508073016 | 27 | 0.0 | 0.0 | 0.00 | 0.00 | 0.00 | 95 | 1008.9 | |
| 20260508072516 | 27 | 0.0 | 0.0 | 0.00 | 0.00 | 0.00 | 95 | 1008.9 | |
| 20260508072016 | 27 | 0.0 | 0.0 | 0.00 | 0.00 | 0.00 | 95 | 1008.8 | |
| 20260508071537 | 28 | 0.0 | 0.0 | 0.00 | 0.00 | 0.00 | 95 | 1008.8 | |
| 20260508071036 | 28 | 0.0 | 0.0 | 0.00 | 0.00 | 0.00 | 95 | 1008.9 | |
| 20260508070516 | 28 | 0.0 | 1.0 | 0.00 | 0.00 | 0.00 | 95 | 1008.9 | |
| 20260508070016 | 28 | 0.0 | 0.0 | 0.00 | 0.00 | 0.00 | 95 | 1008.9 | |
| 20260508065536 | 28 | 0.0 | 0.0 | 0.00 | 0.00 | 0.00 | 95 | 1008.9 | |
| 20260508065016 | 28 | 0.0 | 0.0 | 0.00 | 0.00 | 0.00 | 95 | 1009.0 | |
| 20260508064516 | 28 | 0.0 | 1.0 | 0.00 | 0.00 | 0.00 | 95 | 1009.0 | |
| 20260508064037 | 28 | 0.0 | 0.0 | 0.00 | 0.00 | 0.00 | 95 | 1009.0 | |
| 20260508063516 | 28 | 0.0 | 0.0 | 0.00 | 0.00 | 0.00 | 95 | 1009.0 | |
| 20260508063057 | 28 | 0.0 | 0.0 | 0.00 | 0.00 | 0.00 | 95 | 1009.1 | |
| 20260508062536 | 28 | 0.0 | 0.0 | 0.00 | 0.00 | 0.00 | 95 | 1009.1 | |
| 20260508062017 | 28 | 0.0 | 0.0 | 0.00 | 0.00 | 0.00 | 94 | 1009.1 | |
| 20260508061520 | 28 | 0.0 | 0.0 | 0.00 | 0.00 | 0.00 | 94 | 1009.1 | |
| 20260508061021 | 28 | 0.0 | 0.0 | 0.00 | 0.00 | 0.00 | 94 | 1009.1 | |
| 20260508060541 | 28 | 0.0 | 0.0 | 0.00 | 0.00 | 0.00 | 94 | 1009.1 | |
| 20260508060041 | 28 | 0.0 | 1.0 | 0.00 | 0.00 | 0.00 | 94 | 1009.1 | |
| 20260508055517 | 28 | 0.0 | 0.0 | 0.00 | 0.00 | 0.00 | 94 | 1009.1 | |
| 20260508055016 | 28 | 0.0 | 0.0 | 0.00 | 0.00 | 0.00 | 93 | 1009.2 | |
| 20260508054516 | 29 | 0.0 | 0.0 | 0.00 | 0.00 | 0.00 | 93 | 1009.2 | |
| 20260508054057 | 29 | 0.0 | 0.0 | 0.00 | 0.00 | 0.00 | 93 | 1009.2 | |
| 20260508053516 | 29 | 0.0 | 0.0 | 0.00 | 0.00 | 0.00 | 93 | 1009.1 | |
| 20260508053016 | 29 | 0.0 | 0.0 | 0.00 | 0.00 | 0.00 | 93 | 1009.1 | |
| 20260508052516 | 29 | 0.0 | 0.0 | 0.00 | 0.00 | 0.00 | 93 | 1009.1 | |
| 20260508052016 | 29 | 0.0 | 0.0 | 0.00 | 0.00 | 0.00 | 93 | 1009.2 | |
| 20260508051516 | 29 | 0.0 | 0.0 | 0.00 | 0.00 | 0.00 | 93 | 1009.2 | |
| 20260508051016 | 29 | 0.0 | 0.0 | 0.00 | 0.00 | 0.00 | 93 | 1009.1 | |
| 20260508050516 | 29 | 0.0 | 0.0 | 0.00 | 0.00 | 0.00 | 93 | 1009.1 | |
| 20260508050016 | 29 | 0.0 | 1.0 | 0.00 | 0.00 | 0.00 | 92 | 1009.2 | |
| 20260508045530 | 29 | 0.0 | 1.0 | 0.00 | 0.00 | 0.00 | 93 | 1009.3 | |
| 20260508045037 | 29 | 0.0 | 0.0 | 0.00 | 0.00 | 0.00 | 93 | 1009.5 | |
| 20260508044517 | 29 | 0.0 | 0.0 | 0.00 | 0.00 | 0.00 | 93 | 1009.6 | |
| 20260508044017 | 29 | 0.0 | 0.0 | 0.00 | 0.00 | 0.00 | 93 | 1009.6 | |
| 20260508043516 | 29 | 0.0 | 0.0 | 0.00 | 0.00 | 0.00 | 92 | 1009.6 | |
| 20260508043036 | 29 | 0.0 | 0.0 | 0.00 | 0.00 | 0.00 | 92 | 1009.6 | |
| 20260508042536 | 29 | 0.0 | 0.0 | 0.00 | 0.00 | 0.00 | 92 | 1009.6 | |
| 20260508042016 | 30 | 0.0 | 0.0 | 0.00 | 0.00 | 0.00 | 92 | 1009.6 | |
| 20260508041516 | 30 | 0.0 | 0.0 | 0.00 | 0.00 | 0.00 | 92 | 1009.6 | |
| 20260508041016 | 30 | 0.0 | 0.0 | 0.00 | 0.00 | 0.00 | 91 | 1009.6 | |
| 20260508040516 | 30 | 0.0 | 1.0 | 0.00 | 0.00 | 0.00 | 91 | 1009.5 | |
| 20260508040016 | 30 | 0.0 | 1.0 | 0.00 | 0.00 | 0.00 | 91 | 1009.6 | |
| 20260508035517 | 30 | 0.0 | 1.0 | 0.00 | 0.00 | 0.00 | 91 | 1009.6 | |
| 20260508035016 | 30 | 0.0 | 0.0 | 0.00 | 0.00 | 0.00 | 90 | 1009.7 | |
| 20260508034536 | 31 | 0.0 | 0.0 | 0.00 | 0.00 | 0.00 | 90 | 1009.7 | |
| 20260508034016 | 31 | 0.0 | 1.0 | 0.00 | 0.00 | 0.00 | 89 | 1009.7 | |
| 20260508033516 | 31 | 0.0 | 0.0 | 0.00 | 0.00 | 0.00 | 89 | 1009.6 | |
| 20260508033017 | 31 | 0.0 | 0.0 | 0.00 | 0.00 | 0.00 | 88 | 1009.5 | |
| 20260508032516 | 31 | 0.0 | 0.0 | 0.00 | 0.00 | 0.00 | 89 | 1009.6 | |
| 20260508032016 | 31 | 0.0 | 0.0 | 0.00 | 0.00 | 0.00 | 89 | 1009.6 | |
| 20260508031516 | 31 | 0.0 | 0.0 | 0.00 | 0.00 | 0.00 | 88 | 1009.6 | |
| 20260508031016 | 32 | 0.0 | 0.0 | 0.00 | 0.00 | 0.00 | 88 | 1009.6 | |
| 20260508030516 | 32 | 0.0 | 0.0 | 0.00 | 0.00 | 0.00 | 88 | 1009.6 | |
| 20260508030016 | 32 | 0.0 | 0.0 | 0.00 | 0.00 | 0.00 | 87 | 1009.5 | |
| 20260508025517 | 32 | 0.0 | 0.0 | 0.00 | 0.00 | 0.00 | 87 | 1009.6 | |
| 20260508025016 | 32 | 0.0 | 0.0 | 0.00 | 0.00 | 0.00 | 86 | 1009.5 | |
| 20260508024516 | 32 | 0.0 | 0.0 | 0.00 | 0.00 | 0.00 | 85 | 1009.5 | |
| 20260508024017 | 33 | 0.0 | 0.0 | 0.00 | 0.00 | 0.00 | 85 | 1009.5 | |
| 20260508023537 | 33 | 0.0 | 0.0 | 0.00 | 0.00 | 0.00 | 85 | 1009.5 | |
| 20260508023017 | 33 | 0.0 | 0.0 | 0.00 | 0.00 | 0.00 | 85 | 1009.5 | |
| 20260508022516 | 33 | 0.0 | 0.0 | 0.00 | 0.00 | 0.00 | 84 | 1009.5 | |
| 20260508022016 | 34 | 0.0 | 0.0 | 0.00 | 0.00 | 0.00 | 83 | 1009.4 | |
| 20260508021517 | 34 | 0.0 | 0.0 | 0.00 | 0.00 | 0.00 | 83 | 1009.4 | |
| 20260508021016 | 34 | 0.0 | 0.0 | 0.00 | 0.00 | 0.00 | 82 | 1009.3 | |
| 20260508020517 | 35 | 0.0 | 0.0 | 0.00 | 0.00 | 0.00 | 81 | 1009.3 | |
| 20260508020016 | 35 | 0.0 | 0.0 | 0.00 | 0.00 | 0.00 | 80 | 1009.4 | |
| 20260508015517 | 35 | 0.0 | 0.0 | 0.00 | 0.01 | 0.00 | 79 | 1009.3 | |
| 20260508015057 | 36 | 0.0 | 0.0 | 0.00 | 0.01 | 0.00 | 79 | 1009.3 | |
| 20260508014516 | 36 | 0.0 | 0.0 | 0.00 | 0.01 | 0.00 | 78 | 1009.2 | |
| 20260508014037 | 37 | 0.0 | 0.0 | 0.00 | 0.01 | 0.00 | 75 | 1009.1 | |
| 20260508013537 | 37 | 0.0 | 0.0 | 0.00 | 0.01 | 0.00 | 69 | 1009.1 | |
| 20260508013016 | 37 | 0.0 | 0.0 | 0.00 | 0.01 | 0.00 | 68 | 1009.0 | |
| 20260508012517 | 38 | 0.0 | 0.0 | 0.00 | 0.01 | 0.00 | 68 | 1009.0 | |
| 20260508012016 | 38 | 0.0 | 0.0 | 0.00 | 0.01 | 0.00 | 67 | 1009.0 | |
| 20260508011612 | 39 | 0.0 | 0.0 | 0.00 | 0.02 | 0.00 | 66 | 1009.0 | |
| 20260508011016 | 40 | 0.0 | 0.0 | 0.00 | 0.02 | 0.00 | 64 | 1009.0 | |
| 20260508010517 | 41 | 0.0 | 0.0 | 0.00 | 0.02 | 0.00 | 62 | 1009.0 | |
| 20260508010016 | 42 | 0.0 | 2.0 | 0.00 | 0.03 | 0.00 | 59 | 1008.9 | |
| 20260508005517 | 42 | 0.0 | 3.0 | 0.00 | 0.03 | 0.00 | 57 | 1008.9 | |
| 20260508005016 | 42 | 293 | 1.0 | 4.0 | 0.00 | 0.03 | 0.00 | 57 | 1008.8 |
| 20260508004516 | 41 | 315 | 1.0 | 6.0 | 0.00 | 0.03 | 0.00 | 58 | 1008.7 |
| 20260508004017 | 42 | 0.0 | 1.0 | 0.00 | 0.03 | 0.00 | 60 | 1008.6 | |
| 20260508003517 | 42 | 0.0 | 1.0 | 0.00 | 0.03 | 0.00 | 56 | 1008.6 | |
| 20260508003016 | 43 | 0.0 | 2.0 | 0.00 | 0.03 | 0.00 | 55 | 1008.6 | |
| 20260508002537 | 43 | 315 | 1.0 | 4.0 | 0.00 | 0.04 | 0.00 | 54 | 1008.6 |
| 20260508002017 | 44 | 315 | 1.0 | 3.0 | 0.00 | 0.04 | 0.00 | 53 | 1008.5 |
| 20260508001517 | 44 | 0.0 | 2.0 | 0.00 | 0.04 | 0.00 | 52 | 1008.4 | |
| 20260508001016 | 44 | 315 | 2.0 | 7.0 | 0.00 | 0.05 | 0.00 | 51 | 1008.4 |
| 20260508000516 | 45 | 315 | 3.0 | 6.0 | 0.00 | 0.05 | 0.00 | 50 | 1008.3 |
| 20260508000017 | 45 | 315 | 3.0 | 7.0 | 0.00 | 0.05 | 0.00 | 49 | 1008.3 |
| 20260507235517 | 45 | 315 | 3.0 | 9.0 | 0.00 | 0.05 | 0.00 | 50 | 1008.3 |
| 20260507235016 | 46 | 315 | 2.0 | 10.0 | 0.00 | 0.05 | 0.00 | 49 | 1008.3 |
| 20260507234516 | 46 | 315 | 5.0 | 13.0 | 0.00 | 0.06 | 0.00 | 48 | 1008.2 |
| 20260507234017 | 46 | 315 | 5.0 | 9.0 | 0.00 | 0.06 | 0.00 | 48 | 1008.1 |
| 20260507233517 | 46 | 315 | 3.0 | 9.0 | 0.00 | 0.06 | 0.00 | 47 | 1008.0 |
| 20260507233016 | 47 | 315 | 4.0 | 9.0 | 0.00 | 0.06 | 0.00 | 47 | 1008.0 |
| 20260507232517 | 47 | 315 | 6.0 | 13.0 | 0.00 | 0.06 | 0.00 | 46 | 1008.0 |
| 20260507232017 | 47 | 315 | 5.0 | 11.0 | 0.00 | 0.06 | 0.00 | 47 | 1007.9 |
| 20260507231516 | 48 | 315 | 6.0 | 13.0 | 0.00 | 0.06 | 0.00 | 46 | 1007.9 |
| 20260507231017 | 48 | 315 | 8.0 | 17.0 | 0.00 | 0.06 | 0.00 | 44 | 1007.8 |
| 20260507230517 | 48 | 315 | 6.0 | 12.0 | 0.00 | 0.06 | 0.00 | 46 | 1007.9 |
| 20260507230017 | 49 | 315 | 3.0 | 8.0 | 0.00 | 0.06 | 0.00 | 47 | 1007.8 |
| 20260507225516 | 49 | 315 | 4.0 | 10.0 | 0.00 | 0.06 | 0.00 | 45 | 1007.8 |
| 20260507225017 | 48 | 315 | 2.0 | 6.0 | 0.00 | 0.06 | 0.00 | 46 | 1007.8 |
| 20260507224517 | 48 | 315 | 5.0 | 13.0 | 0.00 | 0.06 | 0.00 | 45 | 1007.8 |
| 20260507224016 | 48 | 315 | 6.0 | 11.0 | 0.00 | 0.06 | 0.00 | 44 | 1007.8 |
| 20260507223557 | 49 | 315 | 7.0 | 17.0 | 0.00 | 0.07 | 0.00 | 45 | 1007.7 |
| 20260507223037 | 50 | 315 | 4.0 | 9.0 | 0.00 | 0.07 | 0.00 | 44 | 1007.7 |
| 20260507222517 | 51 | 315 | 3.0 | 11.0 | 0.00 | 0.07 | 0.00 | 43 | 1007.6 |
| 20260507222017 | 50 | 315 | 2.0 | 7.0 | 0.00 | 0.08 | 0.00 | 46 | 1007.5 |
| 20260507221517 | 49 | 293 | 3.0 | 8.0 | 0.00 | 0.08 | 0.00 | 45 | 1007.6 |
| 20260507221017 | 49 | 315 | 3.0 | 10.0 | 0.00 | 0.08 | 0.00 | 45 | 1007.6 |
| 20260507220517 | 50 | 315 | 6.0 | 13.0 | 0.00 | 0.08 | 0.00 | 44 | 1007.6 |
| 20260507220017 | 51 | 315 | 4.0 | 13.0 | 0.00 | 0.08 | 0.00 | 43 | 1007.5 |
| 20260507215516 | 50 | 315 | 5.0 | 13.0 | 0.00 | 0.08 | 0.00 | 45 | 1007.6 |
| 20260507215017 | 51 | 315 | 4.0 | 10.0 | 0.00 | 0.08 | 0.00 | 43 | 1007.6 |
| 20260507214517 | 50 | 293 | 3.0 | 12.0 | 0.00 | 0.08 | 0.00 | 43 | 1007.6 |
| 20260507214017 | 51 | 315 | 3.0 | 7.0 | 0.00 | 0.08 | 0.00 | 45 | 1007.6 |
| 20260507213516 | 51 | 315 | 4.0 | 11.0 | 0.00 | 0.08 | 0.00 | 44 | 1007.6 |
| 20260507213058 | 52 | 315 | 3.0 | 11.0 | 0.00 | 0.08 | 0.00 | 43 | 1007.6 |
| 20260507212517 | 52 | 315 | 4.0 | 13.0 | 0.00 | 0.08 | 0.00 | 42 | 1007.5 |
| 20260507212157 | 52 | 315 | 5.0 | 11.0 | 0.00 | 0.09 | 0.00 | 42 | 1007.6 |
| 20260507211517 | 52 | 315 | 4.0 | 12.0 | 0.00 | 0.09 | 0.00 | 44 | 1007.5 |
| 20260507211036 | 52 | 315 | 5.0 | 12.0 | 0.00 | 0.09 | 0.00 | 43 | 1007.6 |
| 20260507210516 | 52 | 315 | 3.0 | 14.0 | 0.00 | 0.09 | 0.00 | 44 | 1007.5 |
| 20260507210017 | 52 | 315 | 4.0 | 10.0 | 0.00 | 0.09 | 0.00 | 44 | 1007.5 |
| 20260507205517 | 53 | 315 | 7.0 | 17.0 | 0.00 | 0.09 | 0.00 | 42 | 1007.5 |
| 20260507205016 | 53 | 315 | 3.0 | 8.0 | 0.00 | 0.09 | 0.00 | 45 | 1007.5 |
| 20260507204517 | 52 | 293 | 3.0 | 10.0 | 0.00 | 0.09 | 0.00 | 45 | 1007.4 |
| 20260507204017 | 51 | 315 | 4.0 | 12.0 | 0.00 | 0.09 | 0.00 | 48 | 1007.4 |
| 20260507203536 | 50 | 315 | 6.0 | 12.0 | 0.00 | 0.09 | 0.00 | 47 | 1007.5 |
| 20260507203017 | 51 | 315 | 2.0 | 7.0 | 0.00 | 0.09 | 0.00 | 48 | 1007.5 |
| 20260507202557 | 51 | 315 | 5.0 | 16.0 | 0.00 | 0.09 | 0.00 | 45 | 1007.4 |
| 20260507202017 | 52 | 315 | 5.0 | 13.0 | 0.00 | 0.09 | 0.00 | 46 | 1007.4 |
| 20260507201516 | 53 | 315 | 4.0 | 11.0 | 0.00 | 0.10 | 0.00 | 44 | 1007.4 |
| 20260507201037 | 53 | 315 | 6.0 | 18.0 | 0.00 | 0.10 | 0.00 | 46 | 1007.4 |
| 20260507200517 | 53 | 315 | 4.0 | 12.0 | 0.00 | 0.10 | 0.00 | 45 | 1007.5 |
| 20260507200017 | 53 | 180 | 4.0 | 10.0 | 0.00 | 0.11 | 0.00 | 43 | 1007.5 |
| 20260507195517 | 53 | 315 | 3.0 | 10.0 | 0.00 | 0.12 | 0.00 | 46 | 1007.5 |
| 20260507195017 | 53 | 338 | 3.0 | 10.0 | 0.00 | 0.13 | 0.00 | 47 | 1007.5 |
| 20260507194537 | 52 | 315 | 8.0 | 17.0 | 0.00 | 0.13 | 0.00 | 44 | 1007.6 |
| 20260507194017 | 53 | 315 | 8.0 | 15.0 | 0.00 | 0.13 | 0.00 | 42 | 1007.6 |